STARLINK-35611, 66427

Orbit data source: Space-Track

STARLINK-35611, 66427 is a payload satellite owned by SpaceX/Seattle (US) in LEO that was launched on Tue, 11 Nov 2025 UTC via an FALCON 9 launch vehicle from the Air Force Eastern Test Range (AFETR). Payload-class satellites include a variety of spacecraft equipped with specific instruments for various scientific and technological missions. These include communications satellites like Starlink; space stations such as the ISS; scientific satellites like the Hubble; Earth observation satellites from companies like Planet Labs, Umbra, and HawkEye 360; GPS; miniature CubeSats for education and research; and military/defense satellites.

Loading next visibility...
Identifier
66427, 2025-259F
Orbit
LEO
Country
Flag of USUS
Related business
Manufacturer
SpaceX/Seattle
Mission
Operational Commercial Communications
Bus & Motor
STARLINK V2MO, Unknown motor
Mass
575 kg wet, ~530 kg dry
Launch date (UTC)
2025-11-11 (7 months ago)
Launch vehicle
FALCON 9
Launch site
Air Force Eastern Test Range (AFETR)
Object type
Payload
Rocket body
Debris
Shape & HBR
Box + 2 Pan, 17.7 m
Radar Cross Section
36.964 m², Large (>1 m²)

Expand to show TLE details & history
Last TLE update: 14 hours ago

TLE from 14 hours ago
0 STARLINK-35611
1 66427U 25259F   26150.10841611  .00019980  00000-0  73276-3 0  9999
2 66427  42.9991 174.5015 0001525 279.2796  80.7883 15.27618322 31947
Epoch: 2026-05-30T02:36Z
TLE epoch observation values (Epoch: 2026-05-30T02:36:07.151Z)
Latitude
-0.00005°
Longitude
-112.15752°
Altitude
482.542 km
Speed
7.626 km/s
True Right ascension
11h 38m 00s
True Declination
0° 00' 00"
Sunlit
Object was in daylight at epoch
Visualization orbit readout
Latitude
Unknown
Longitude
Unknown
Altitude
Unknown
Speed
Unknown
Apparent Right ascension
Unknown
Apparent Declination
Unknown
Sunlit
N/A
Visualization observer readout
Local Sidereal Time
02:07:30
Azimuth
Unknown
Elevation
Unknown
Doppler factor
Unknown
Orbital elements
Apogee altitude
485.926 km
Perigee altitude
483.833 km
Semi-major axis
6,863.017 km
Eccentricity
0.00015
Inclination
42.9991°
RAAN
174.5015°
Arg. of periapsis
279.2796°
True anomaly
80.80555°
Mean anomaly
80.7883°
Eccentric anomaly
80.79693°
Mean motion
3.81743 °/min
Orbital period
94.3 mins
BSTAR
0.00073276
Loading maneuver chart data...
Computing Atmospheric mass density...
Loading historical data...
Loading historical data...
Loading historical data...
Loading historical data...
Loading historical data...
Loading historical data...
Loading historical data...

Documentation

Showing up to 5 results
|